Regional Weather Roundup
Issued by NWS

Home | Current Version | Previous Version | Graphics & Text | Print | Product List | Glossary On
Versions: 1 2 3 4 5 6 7 8 9 10 11 12 13 14 15 16 17 18 19 20 21 22 23 24 25 26 27 28 29 30 31 32 33 34 35 36 37 38 39 40 41 42 43 44 45 46 47 48 49 50
000
ASUS45 KCYS 290710
RWRWY

WYOMING REGIONAL WEATHER ROUNDUP
NATIONAL WEATHER SERVICE CHEYENNE WY
100 AM MDT SAT AUG 29 2015

NOTE:  "FAIR" INDICATES FEW OR NO CLOUDS BELOW 12,000 FEET
WITH NO SIGNIFICANT WEATHER AND/OR OBSTRUCTIONS TO VISIBILITY.

WYZ001-290800-
YELLOWSTONE NATIONAL PARK

CITY           SKY/WX    TMP DP  RH WIND       PRES   REMARKS
LK YELLOWSTONE   N/A     42  35  76 NW3       30.37S
W YELLOWSTONE  NOT AVBL

$$
WYZ002>013-054>058-071-098>099-290800-
NORTHERN WYOMING

CITY           SKY/WX    TMP DP  RH WIND       PRES   REMARKS
JACKSON        FAIR      50  45  81 N7        30.27S
CODY           FAIR      66  39  37 SW9       30.13S
GREYBULL       FAIR      65  39  38 CALM      30.06S
WORLAND        FAIR      61  41  47 S3        30.08S
SHERIDAN       FAIR      57  46  66 CALM      30.07S
BUFFALO        FAIR      66  40  38 W9        30.15F
GILLETTE       FAIR      58  45  62 E5        30.11F
HULETT         FAIR      63  46  55 SE6       30.13F
NEWCASTLE      FAIR      61  41  48 CALM      30.15F

$$
WYZ014>020-022>026-101>103-290800-
CENTRAL WYOMING

CITY           SKY/WX    TMP DP  RH WIND       PRES   REMARKS
BIG PINEY      FAIR      49  35  58 E6        30.33S
PINEDALE       FAIR      46  39  76 NW7       30.34S
DUBOIS         FAIR      52  34  50 NW10      30.33S
LANDER         FAIR      64  39  39 CALM      30.19S
RIVERTON       FAIR      59  45  59 CALM      30.19S
CASPER         FAIR      51  38  60 W5        30.20F
DOUGLAS        FAIR      59  39  47 SE6       30.20F

$$
WYZ021-027>030-104>119-290800-
SOUTHERN WYOMING

CITY           SKY/WX    TMP DP  RH WIND       PRES   REMARKS
EVANSTON       FAIR      63  36  36 S6        30.31F
KEMMERER       FAIR      54  32  43 N13       30.33F
FORT BRIDGER   SUNNY     68  32  26 CALM      30.33F
ROCK SPRINGS   FAIR      64  28  25 NE5       30.30S
DIXON          FAIR      52  35  51 NE7       30.35S
RAWLINS        FAIR      53  40  61 E8        30.33S
SARATOGA       FAIR      57  41  54 SE8       30.36F
LARAMIE        FAIR      55  39  54 S10       30.38F
CHEYENNE       FAIR      54  45  71 W7        30.33S
TORRINGTON     FAIR      62  47  57 SE3       30.18R
PINE BLUFFS    FAIR      52  41  66 SW3       30.27S

$$


USA.gov is the U.S. government's official web portal to all federal, state and local government web resources and services.